• MPC Preparation (Info)

  • MPEC 2017-K93 : 2017 KK32

    The following Minor Planet Electronic Circular may be linked-to from your own Web pages, but must not otherwise be redistributed electronically.

    A form allowing access to any MPEC is at the bottom of this page.


    Read MPEC 2017-K92 Read MPEC 2017-K94


    M.P.E.C. 2017-K93                                Issued 2017 May 31, 01:51 UT
    
         The Minor Planet Electronic Circulars contain information on unusual
             minor planets and routine data on comets.  They are published
        on behalf of Division F of the International Astronomical Union by the
              Minor Planet Center, Smithsonian Astrophysical Observatory,
                              Cambridge, MA 02138, U.S.A.
    
                 Prepared using the Tamkin Foundation Computer Network
    
                                  MPC@CFA.HARVARD.EDU
                URL https://www.minorplanetcenter.net/    ISSN 1523-6714
    
                                       2017 KK32
    
    Observations:
         K17K32K* C2017 05 29.29310 15 28 44.73 -12 24 50.6          19.5 VqEK093G96
         K17K32K  C2017 05 29.29724 15 28 53.88 -12 25 20.0          20.3 VqEK093G96
         K17K32K  C2017 05 29.30140 15 29 03.35 -12 25 51.4          19.8 VqEK093G96
         K17K32K  C2017 05 29.30556 15 29 12.47 -12 26 21.7          19.9 VqEK093G96
         K17K32K  C2017 05 29.36008 15 31 14.35 -12 32 57.2          19.9 VqEK093I52
         K17K32K  C2017 05 29.36472 15 31 24.54 -12 33 30.2          20.6 VqEK093I52
         K17K32K  C2017 05 29.36513 15 31 25.53 -12 33 33.2          19.8 VqEK093I52
         K17K32K  C2017 05 29.36554 15 31 26.43 -12 33 35.8          20.5 VqEK093I52
         K17K32K  C2017 05 29.37960 15 31 57.66 -12 35 15.0          19.7 VqEK093I52
         K17K32K  C2017 05 29.38003 15 31 58.64 -12 35 17.7          20.0 VqEK093I52
         K17K32K  C2017 05 29.38044 15 31 59.52 -12 35 20.9          19.9 VqEK093I52
         K17K32K  C2017 05 29.38086 15 32 00.47 -12 35 23.7          19.2 VqEK093I52
         K17K32K  C2017 05 29.40657 15 32 57.50 -12 38 21.8          20.5 VqEK093G96
         K17K32K  C2017 05 29.40698 15 32 58.42 -12 38 25.4          20.2 VqEK093G96
         K17K32K  C2017 05 29.40738 15 32 59.32 -12 38 27.6          20.5 VqEK093G96
         K17K32K  C2017 05 29.40778 15 33 00.22 -12 38 30.7          20.1 VqEK093G96
         K17K32K KC2017 05 29.89483 15 50 38.01 -13 31 19.7                UEK093104
         K17K32K KC2017 05 29.89946 15 50 46.97 -13 31 45.6          19.7  UEK093104
         K17K32K KC2017 05 29.90412 15 50 55.86 -13 32 12.1          19.9  UEK093104
         K17K32K KC2017 05 30.26792616 02 18.82 -14 03 44.9          20.6 VuEK093H21
         K17K32K KC2017 05 30.27007716 02 22.54 -14 03 55.1          20.2 VuEK093H21
         K17K32K KC2017 05 30.27229816 02 26.37 -14 04 05.1          20.6 VuEK093H21
         K17K32K  C2017 05 30.33274 16 04 14.28 -14 08 32.0          20.7 VqEK093I52
         K17K32K  C2017 05 30.33350 16 04 15.56 -14 08 36.5          21.4 VqEK093I52
         K17K32K  C2017 05 30.33426 16 04 16.92 -14 08 39.3          20.3 VqEK093I52
    
    Observer details:
    104 San Marcello Pistoiese.  Observers P. Bacci, M. Maestripieri.  Measurers
        P. Bacci, L. Tesi, G. Fagioli.  0.60-m f/4 reflector + CCD.
    G96 Mt. Lemmon Survey.  Observers A. D. Grauer, D. Z. Sieck, H. T. Sieck.
        Measurers E. J. Christensen, D. C. Fuls, A. R. Gibbs, A. D. Grauer,
        J. A. Johnson, R. A. Kowalski, S. M. Larson, G. J. Leonard, R. G. Matheny,
        R. L. Seaman, F. C. Shelly.  1.5-m reflector + 10K CCD.
    H21 Astronomical Research Observatory, Westfield.  Observer R. Holmes.
        Measurers S. Foglia, L. Buzzi, T. Linder, R. Holmes.  0.61-m f/4.5
        astrograph + CCD.
    I52 Steward Observatory, Mt. Lemmon Station.  Observer D. C. Fuls.  Measurers
        E. J. Christensen, D. C. Fuls, A. R. Gibbs, A. D. Grauer, J. A. Johnson,
        R. A. Kowalski, S. M. Larson, G. J. Leonard, R. G. Matheny, R. L. Seaman,
        F. C. Shelly.  1.0-m reflector + CCD.
    
    Orbital elements:
    2017 KK32                                                Earth MOID = 0.0007 AU
    Epoch 2017 Sept. 4.0 TT = JDT 2458000.5                 MPC
    M  26.87071              (2000.0)            P               Q
    n   0.21275992     Peri.  329.80972     -0.85632383     +0.51579763
    a   2.7789208      Node   241.26290     -0.46775927     -0.79576298
    e   0.6539688      Incl.    1.68187     -0.21888525     -0.31735482
    P   4.63           H   26.9           G   0.15           U   7
    Residuals in seconds of arc
    170529 G96 (1.7+  1.1-)   170529 I52  0.1+  0.2+    170529 104  0.2+  0.7+
    170529 G96  0.6-  0.3+    170529 I52  0.4-  0.1-    170530 H21  0.0   0.1+
    170529 G96  1.3+  0.2-    170529 I52  0.1-  0.0     170530 H21  0.3+  0.1+
    170529 G96 (1.8-  0.3+)   170529 G96  0.1+  0.4+    170530 H21  0.4+  0.6+
    170529 I52  0.6+  0.1-    170529 G96  0.3+  0.3-    170530 I52  0.6-  0.1+
    170529 I52  1.3-  0.2-    170529 G96  0.5+  0.2+    170530 I52  0.6-  0.9-
    170529 I52  0.1-  0.3-    170529 G96  0.7+  0.1-    170530 I52  0.6+  0.2-
    170529 I52  0.3-  0.0     170529 104  0.7-  0.5-
    170529 I52  0.3-  0.1-    170529 104  0.6+  0.4+
    
    Ephemeris:
    2017 KK32                a,e,i = 2.78, 0.65, 2                   q = 0.9616
    Date    TT    R. A. (2000) Decl.     Delta      r     Elong.  Phase     V
    2017 05 01    07 21 37.2 +17 07 37   0.1636  0.9612    69.0   101.8    26.6
    ...
    2017 05 16    08 13 15.5 +15 43 41   0.07098 0.9854    67.0   109.2    25.2
    ...
    2017 05 24    10 41 26.8 +08 09 23   0.02758 1.0159    96.0    82.4    22.0
    ...
    2017 05 30    15 53 59.6 -13 37 15   0.03257 1.0457   168.7    11.0    20.2
    2017 05 31    16 22 17.5 -14 50 32   0.03757 1.0511   172.6     7.1    20.4
    2017 06 01    16 43 54.9 -15 37 39   0.04301 1.0567   173.3     6.4    20.7
    ...
    2017 06 07    17 46 19.9 -17 11 00   0.07987 1.0930   167.8    11.3    22.3
    ...
    2017 06 15    18 12 06.4 -17 38 14   0.1339  1.1476   169.3     9.5    23.5
    ...
    2017 06 30    18 25 53.2 -18 12 13   0.2481  1.2638   174.5     4.4    24.8
    
    A. U. Tomatic                (C) Copyright 2017 MPC           M.P.E.C. 2017-K93
    

    Read MPEC 2017-K92 Read MPEC 2017-K94


    MPEC number:

    Enter an MPEC number in one of the following forms:

    • 1997-B01 (the full form)
    • J97B01 (the packed version of the full form)
    • B01 (the abbreviated form)